Location: Haulchin
(50.3172°N, 3.4360°E)
Time: 19:13:48
(UTC+00:00)

SL-16 R/B - Pass Details

Date: 23 May 2024
Orbit: 842 x 845 km, 71.0° (Epoch: 14 June)

Event Time Altitude Azimuth Distance (km) Brightness Sun altitude
Rises 01:34:28 0° 329° (NNW) 3,417 5.8 -14.9°
Reaches altitude 10° 01:36:55 10° 327° (NNW) 2,478 5.0 -14.7°
Maximum altitude 01:42:35 70° 245° (WSW) 900 2.2 -14.3°
Drops below altitude 10° 01:48:12 10° 163° (SSE) 2,461 4.2 -13.8°
Enters shadow 01:48:59 - 162° (SSE) 2,761 4.5 -13.8°
